Flag for Canada Weather past 2 weeks in Cranbrook, British Columbia, Canada

Now
63 °F

Broken clouds.


Feels Like: 63 °F
Forecast: 53 / 75 °F
Wind: 3 mph from Southeast

Location: Cranbrook

Current Time: Aug 20, 2014 at 2:56:30 PM

Latest Report: Aug 20, 2014 at 2:00 PM


Visibility: 15 mi

Pressure: 29.87 "Hg

Humidity: 73%

Dew point: 54 °F

Location of CranbrookLocation

Historic Weather in Cranbrook — Graph

°F

Cranbrook temperature yesterday

Maximum temperature yesterday: 73 °F (at 3:00 PM)
Minimum temperature yesterday: 55 °F (at 8:00 AM)
Average temperature yesterday: 63 °F

Past Weeks' High & Low Weather Summary

 TemperatureHumidityPressure
High93 °F (Aug 11, 5:00 PM)100% (Aug 15, 3:00 AM)30.21 "Hg (Aug 15, 3:00 AM)
Low54 °F (Aug 8, 6:00 AM)13% (Aug 6, 5:00 PM)29.71 "Hg (Aug 19, 3:00 PM)
Average69 °F53%29.96 "Hg
* Reported Aug 5 1:00 PM — Aug 20 1:00 PM, Cranbrook, Weather by CustomWeather, © 2014

Note: Actual official high and low records may vary slightly from our data, if they occured in-between our weather recording intervals... More about our weather records

Advertising

Cranbrook weather history for previous 24 hours

 ConditionsComfort  
Time TempWeatherWind HumidityBarometerVisibility
1:00 PM
Aug 20
61 °FMore clouds than sun.3 mph83%29.88 "Hg10 mi
12:00 PM57 °FSprinkles. Cloudy.3 mph94%29.88 "Hg8 mi
11:00 AM55 °FSprinkles. Fog.6 mph100%29.88 "Hg5 mi
10:00 AM54 °FSprinkles. Fog.No wind100%29.88 "Hg3 mi
9:00 AM54 °FThunderstorms. Fog.5 mph94%29.85 "Hg3 mi
8:00 AM54 °FFog.3 mph94%29.83 "Hg1 mi
7:00 AM54 °FFog.No wind88%29.80 "Hg20 mi
6:00 AM54 °FFog.2 mph88%29.80 "Hg12 mi
5:48 AM54 °FFog.No wind88%29.80 "Hg15 mi
5:00 AM54 °FPassing clouds.3 mph88%29.80 "Hg20 mi
4:00 AM55 °FPassing clouds.6 mph88%29.78 "Hg25 mi
3:00 AM55 °FPassing clouds.6 mph88%29.75 "Hg25 mi
2:00 AM55 °FPassing clouds.5 mph88%29.76 "Hg25 mi
1:00 AM57 °FPartly cloudy.5 mph88%29.77 "Hg25 mi
12:00 AM57 °FPassing clouds.3 mph88%29.76 "Hg25 mi
11:00 PM
Aug 19
59 °FPassing clouds.6 mph82%29.74 "Hg25 mi
10:00 PM57 °FPartly cloudy.3 mph88%29.74 "Hg25 mi
9:00 PM61 °FPartly sunny.6 mph77%29.75 "Hg20 mi
8:00 PM63 °FThunderstorms. Partly sunny.8 mph77%29.73 "Hg20 mi
7:00 PM66 °FBroken clouds.No wind64%29.73 "Hg25 mi
6:00 PM64 °FPartly sunny.2 mphN/A29.74 "Hg25 mi
4:00 PM66 °FThunderstorms. Partly sunny.17 mph64%29.76 "Hg25 mi
3:00 PM73 °FPartly sunny.3 mph57%29.71 "Hg25 mi
2:00 PM72 °FPartly sunny.3 mph57%29.72 "Hg25 mi
Weather by CustomWeather, © 2014

See weather overviewHow to use our weather pages